162  
ASUS41 KAKQ 220915  
RWRAKQ  
 
REGIONAL WEATHER ROUNDUP  
NATIONAL WEATHER SERVICE WAKEFIELD VA  
500 AM EDT MON OCT 22 2018  
 
NOTE: "FAIR" INDICATES FEW OR NO CLOUDS BELOW 12,000 FEET WITH NO  
SIGNIFICANT WEATHER AND/OR S TO VISIBILITY
. * = DENOTES  
STATION MAY NOT REPORT PRECIPITATION (E.G., RAIN,SNOW,ETC.),
 
THUNDER OR FOG.  
 
VAZ042-051-052>054-056-221000-  
NORTHERN VIRGINIA  
 
CITY SKY/WX TMP DP RH WIND PRES REMARKS
 
WASH NATIONAL FAIR 39 31 72 W5 30.31R  
DULLES FAIR 32 30 92 CALM 30.29S  
FORT BELVOIR FAIR 32 32 99 CALM 30.30S  
QUANTICO FAIR 35 34 96 NW9 30.32R  
FREDERICKSBRG* FAIR 32 32 100 CALM 30.30S  
STAFFORD* FAIR 30 30 100 CALM 30.35S  
WARRENTON FAIR 30 28 90 CALM 30.30R  
CULPEPER* FAIR 30 29 95 CALM 30.31S  
MANASSAS* FAIR 29 26 89 S5 30.31R  
LEESBURG* FAIR 32 32 100 CALM 30.30S  
WINCHESTER FAIR 30 28 93 CALM 30.29R  
FRONT ROYAL* FAIR 32 32 100 S5 30.27R  
LURAY* FAIR 30 30 100 CALM 30.28R  

 
 
VAZ048-049-060>072-079>083-221000-  
CENTRAL AND SOUTH CENTRAL VIRGINIA  
 
CITY SKY/WX TMP DP RH WIND PRES REMARKS
 
RICHMOND FAIR 35 30 82 CALM 30.31R  
CHESTERFIELD* FAIR 28 27 96 CALM 30.31R  
PETERSBURG* FAIR 30 29 94 CALM 30.32S  
HANOVER FAIR 32 31 96 CALM 30.32R  
TAPPAHANNOCK* FAIR 35 33 94 CALM 30.31R  
QUINTON* FAIR 33 33 100 CALM 30.31R  
CHARLOTTSVILLE FAIR 34 28 79 CALM 30.28S  
GORDONSVILLE* FAIR 30 30 100 CALM 30.30R  
ORANGE* FAIR 30 30 100 CALM 30.29S  
LOUISA* FAIR 28 27 97 CALM 30.34R  
BUMPASS* FAIR 30 29 96 CALM 30.30R  
FARMVILLE* NOT AVBL  
CREWE* FAIR 29 28 95 CALM 30.29F  
FORT PICKETT* FAIR 31 31 100 CALM 30.30F  
CHASE CITY* FAIR 32 32 100 CALM 30.30S  
CLARKSVILLE* FAIR 36 36 100 CALM 30.30S  
SOUTH HILL* FAIR 31 31 100 CALM 30.36S  
LAWRENCEVILLE* FAIR 32 31 96 MISG 30.30F  
EMPORIA* NOT AVBL  

 
 
VAZ088>098-221000-  
SOUTHEAST VIRGINIA  
 
CITY SKY/WX TMP DP RH WIND PRES REMARKS
 
NORFOLK FAIR 46 39 76 NW7 30.28S  
VIRGINIA BEACH FAIR 41 38 89 SW6 30.28R  
NORFOLK NAVAL FAIR 46 37 71 NW12 30.30S  
WEST POINT* FAIR 33 32 99 CALM 30.33R  
SALUDA* FAIR 43 36 75 N7 30.29S  
NEWPORT NEWS FAIR 37 33 85 CALM 30.30S  
LANGLEY AFB FAIR 39 35 87 W7 30.29S  
FORT EUSTIS FAIR 38 34 87 CALM 30.28S  
WILLIAMSBURG* FAIR 37 34 87 CALM 30.32R  
HR EXEC AP* FAIR 30 29 96 W3 30.31R  
FRANKLIN* FAIR 32 32 99 CALM 30.32S  
US460-WAKEFLD FAIR 33 31 92 CALM 30.32R  

 
 
VAZ020-022-025-037-045-221000-  
WEST CENTRAL AND SOUTHWEST VIRGINIA  
 
CITY SKY/WX TMP DP RH WIND PRES REMARKS
 
STAUNTON* FAIR 28 27 94 CALM 30.28S  
WAYNESBORO* FAIR 29 28 96 CALM 30.25S  
HOT SPRINGS VA FAIR 32 29 89 W13 30.18S WCI 23  
LYNCHBURG FAIR 31 29 92 CALM 30.27F  
DANVILLE FAIR 32 30 92 CALM 30.29F  
SOUTH BOSTON* FAIR 31 29 94 CALM 30.30S  
MARTINSVILLE FAIR 28 28 100 CALM 30.30S  
ROANOKE FAIR 35 31 85 CALM 30.29R  
BLACKSBURG FAIR 32 31 97 CALM 30.29R  
DUBLIN* FAIR 31 30 99 CALM 30.27S  
MARION* FAIR 32 32 100 CALM 30.28R  
HILLSVILLE* FAIR 32 29 90 W3 30.24R  
RICHLANDS* FAIR 31 28 90 CALM 30.25R  
WISE* FAIR 32 32 100 S5 30.25R  
ABINGDON* FAIR 34 32 94 SE3 30.26R  

 
 
MDZ021>025-VAZ099-100-221000-  
SOUTHERN MARYLAND AND THE DELMARVA PENINSULA  
 
CITY SKY/WX TMP DP RH WIND PRES REMARKS
 
PATUXENT RIVER FAIR 46 31 55 NW9 30.29S  
BAY BRIDGE APT FAIR 43 36 75 NW8 30.28S  
LEONARDTOWN FAIR 34 32 93 CALM 30.31S  
DOVER FAIR 35 32 86 SW5 30.27S  
GEORGETOWN FAIR 35 32 88 CALM 30.28S  
EASTON FAIR 39 35 84 CALM 30.31S  
CAMBRIDGE CLEAR 39 34 81 CALM 30.29R  
SALISBURY FAIR 32 32 100 CALM 30.29R  
TANGIER FAIR 46 36 66 N12 30.28S  
OCEAN CITY FAIR 32 30 92 CALM 30.29R  
WALLOPS ISLAND FAIR 38 33 82 NW3 30.29R  
ACCOMACK* FAIR 38 35 89 NE3 30.28S  

 
 
NCZ012>017-030>032-221000-  
NORTH CENTRAL AND EASTERN NORTH CAROLINA  
 
CITY SKY/WX TMP DP RH WIND PRES REMARKS
 
ROANOKE RAPIDS FAIR 32 32 100 CALM 30.32S  
RALEIGH FAIR 35 34 96 CALM 30.29F  
ELIZABETH CITY FAIR 37 33 85 W6 30.30R  
AHOSKIE* FAIR 34 34 100 CALM 30.32S  
EDENTON* NOT AVBL  
CURRITUCK* FAIR 38 36 92 MISG 30.29S  
KILL DEVIL HLS FAIR 47 39 74 CALM 30.26S  
MANTEO FAIR 49 40 70 N8 30.28S  
CAPE HATTERAS FAIR 54 43 66 VRB5 30.26S  
TARBORO* FAIR 34 33 99 CALM 30.32R FOG  
GOLDSBORO FAIR 39 34 82 CALM 30.29R  
WASHINGTON FAIR 36 35 94 CALM 30.31R  
GREENVILLE FAIR 34 34 100 CALM 30.31R  
NEW BERN FAIR 40 38 93 CALM 30.30S  
WILMINGTON FAIR 39 34 82 NE6 30.29S  

 
 
VAZ048-221000-  
ELSEWHERE  
 
CITY SKY/WX TMP DP RH WIND PRES REMARKS
 
HARRISBURG PA FAIR 41 31 67 W3 30.24F  
BALTIMORE FAIR 35 32 88 W3 30.28S  
ANNAPOLIS FAIR 43 31 62 W6 30.28S  
ANDREWS AFB FAIR 36 30 79 W3 30.28S  
PHILADELPHIA CLOUDY 42 29 59 W8 30.27R  
HENDERSON NC FAIR 30 29 97 CALM 30.29F  
GREENSBORO FAIR 37 33 85 CALM 30.26S  
ROCKY MOUNT FAIR 37 35 92 CALM 30.31R  

 
 
VAZ100-221000-  
MARINE  
 
STATION/POSITION TIME TEMP WIND PRES WAVE SWELL
 
AIR SEA DIR/SP/G HT/PER HT/PER  
(UTC) (F) (DEG/KT/KT) (MB) (FT/S) (FT/S)  
BRANDYWINE LGT 0848 48 320/ 8/ 12 1025.2R  
CAPE MAY NJ 0848 46 58 330/ 3/ 7 1024.4R  
LEWES DE 0848 45 59 290/ 11/ 14 1025.0S  
15NM E FENWICK I 0850 65 1024.9R 4/ 5 3/ 5  
OCEAN-CITY-INLET 0848 41 63 310/ 5/ 7 1025.8R  
WACHAPREAGUE VA 0848 43 56 10/ 4/ 6 1025.6S  
GOOSES REEF MD 0900 47 66 CALM 1026.0  
COVE POINT MD 0848 43 320/ 9/ 12 1026.2R  
SOLOMONS ISLAND 0848 43 64 330/ 6/ 8 1025.8R  
BISHOPS HEAD MD 0848 41 53 330/ 6/ 8 1025.8F  
PINEY POINT MD 0842 10/ 8/ 10 N/A  
POTOMAC MD 0900 44 65 350/ 12/ 14 1025.0  
CAMBRIDGE MD 0842 44 59 1026.4R  
LEWISETTA VA 0848 46 59 350/ 6/ 13 1025.5F  
RAPPAHANNOCK LGT 0848 360/ 12/ 16 1025.9F  
STINGRAY PT 0900 48 65 10/ 14/ 16 1026.0 2/ 3  
YORK RVR RNG VA 0848 48 10/ 12/ 15 1026.1F  
YORKTOWN VA 0848 45 65 360/ 11/ 12 1025.5F  
DOMINION TERM VA 0848 44 10/ 8/ 10 1026.2R  
KIPTOPEKE VA 0848 61 70/ 4/ 5 N/A  
CAPE HENRY VA 0848 50 30/ 12/ 15 1023.7R  
WILLOUBY STN VA 0848 45 340/ 11/ 13 1025.2R  
S CRANEY ISL VA 0848 47 350/ 9/ 13 1025.5R  
CAPE HENRY BUOY 0900 69 N/A 3/ 7  
1ST LANDING BUOY 0850 51 80/ 14/ 16 1025.1S  
64NM E OF VA BCH 0850 54 66 360/ 10/ 14 1024.9R 5/ 8 3/ 8  
DUCK PIER NC 0848 49 68 310/ 13/ 15 1024.7R  
44100 DUCK FRF 0845 70 N/A 5/ 6  
44056 DUCK FRF 0900 70 N/A 5/ 7  
OREGON INLET NC 0842 51 66 310/ 8/ 11 1024.7R  
HATTERAS NC 0848 56 64 360/ 10/ 13 1024.6R  
DIAMOND SHLS NC 0900 59 10/ 12/ 16 1024.8  

 
 
 
CLICK HERE TO GO TO PREVIOUS BULLETINS.

The Nexlab VA Page
The Nexlab NC Page
The Nexlab MD Page Main Text Page